Wind_Speed
12 14 12 21 23 27 20 20 12 26 19 24 36 37 37 33 34 32 27 25 34 34
7 5 9 13 20 5 18 14 24 16 6 16 19 14 40 36 30 31 25 23 24 29
16 13 15 19 17 12 13 10 15 20 1 7 6 44 13 9 11 19 19 22 27 31
24 24 33 33 28 23 17 16 8 9 6 3 8 6 6 7 7 10 14 18 20 22
29 33 50 47 44 37 29 28 29 17 5 4 2 6 2 2 6 8 11 16 16 21
43 49 48 46 42 39 37 33 27 25 22 17 17 11 8 7 7 9 9 11 12 15
47 48 50 47 43 39 37 36 31 29 29 25 22 20 17 13 13 13 12 13 11 11
44 44 47 48 48 45 43 43 40 34 28 28 28 25 21 19 18 16 16 16 15 16
38 41 43 42 43 44 43 42 41 38 35 34 33 28 26 25 25 23 20 19 19 17
37 39 39 39 40 39 39 37 36 34 34 33 31 28 26 24 22 24 24 21 22 23
38 37 36 38 39 38 36 35 37 36 34 32 32 28 27 27 27 25 25 25 26 27
36 36 36 36 36 36 34 34 35 34 33 34 33 32 30 29 28 27 27 27 28 28
33 34 35 35 35 33 33 32 32 33 34 33 33 32 32 32 30 30 29 27 26 27
31 33 32 32 32 32 32 32 33 33 34 34 33 32 31 30 30 30 30 31 31 31
Wind_Direction
281 251 248 242 225 217 244 246 338 306 144 185 203 223 234 224 226 226 230 237 236 245
342 191 145 173 206 232 229 215 233 263 291 171 191 244 245 223 218 227 236 249 259 256
34 93 96 128 138 90 97 168 151 216 231 167 210 237 306 127 196 217 236 253 258 265
39 68 82 100 112 104 88 93 136 117 181 33 187 234 208 194 230 245 245 253 254 255
37 56 81 86 88 92 92 97 95 105 155 32 69 55 54 8 276 281 259 266 277 269
48 55 75 78 83 87 79 78 79 82 81 65 58 38 16 0 324 320 312 304 297 288
55 58 69 74 78 83 81 84 81 77 77 76 75 72 66 59 45 31 18 14 354 338
62 60 65 68 70 72 71 72 73 76 75 73 70 67 72 69 64 61 44 29 15 8
60 61 61 65 66 65 64 64 67 67 66 68 64 59 58 56 53 49 49 36 26 18
58 61 62 62 64 64 63 62 63 60 57 59 58 50 49 46 44 40 38 31 18 18
54 57 59 60 60 59 58 56 55 54 51 49 51 46 45 41 38 33 29 22 15 10
51 53 54 54 57 56 54 53 50 49 46 42 39 34 32 30 30 27 23 19 16 9
46 49 50 50 50 50 49 48 46 43 41 38 35 32 28 26 21 20 14 11 8 8
36 40 43 45 46 46 45 43 42 38 35 32 30 29 27 25 21 18 11 9 6 5
Height
1413 1410 1409 1405 1400 1408 1409 1408 1398 1394 1381 1410 1432 1439 1449 1449 1449 1455 1460 1463 1466 1471
1410 1406 1404 1398 1393 1397 1405 1406 1413 1409 1399 1417 1425 1427 1431 1440 1443 1449 1455 1458 1463 1463
1414 1407 1403 1394 1381 1398 1404 1406 1400 1416 1413 1420 1416 1429 1399 1407 1427 1442 1449 1454 1457 1457
1419 1408 1400 1388 1384 1396 1404 1400 1407 1409 1417 1420 1428 1428 1426 1423 1428 1440 1445 1447 1448 1448
1426 1405 1388 1392 1394 1403 1414 1413 1409 1412 1418 1427 1424 1426 1423 1425 1433 1441 1440 1444 1444 1444
1424 1406 1400 1401 1404 1409 1415 1413 1415 1418 1422 1425 1423 1422 1427 1427 1436 1439 1439 1439 1437 1440
1422 1422 1416 1415 1416 1414 1422 1419 1421 1424 1421 1429 1430 1431 1435 1435 1437 1439 1440 1439 1438 1440
1441 1438 1432 1430 1429 1431 1430 1427 1426 1425 1439 1438 1439 1441 1439 1439 1440 1440 1439 1439 1442 1439
1455 1449 1445 1442 1439 1438 1437 1438 1439 1448 1450 1447 1446 1448 1440 1440 1439 1439 1433 1436 1439 1435
1463 1459 1457 1456 1451 1451 1451 1453 1455 1455 1452 1449 1449 1450 1447 1444 1445 1438 1435 1438 1442 1436
1470 1467 1466 1462 1459 1458 1461 1462 1458 1459 1457 1456 1452 1455 1451 1447 1440 1441 1442 1442 1437 1434
1479 1474 1470 1466 1465 1465 1465 1463 1460 1460 1460 1456 1451 1447 1446 1448 1446 1444 1445 1442 1436 1434
1485 1481 1476 1474 1469 1468 1467 1465 1462 1459 1458 1458 1457 1454 1450 1445 1446 1443 1446 1443 1440 1433
1488 1484 1483 1481 1478 1476 1473 1471 1468 1464 1460 1458 1459 1458 1455 1453 1452 1451 1446 1438 1433 1429